Flag for Norfolk Island Weather past 2 weeks in Kingston, Norfolk Island

Now
57 °F

Clear.


Feels Like: 55 °F
Forecast: 56 / 63 °F
Wind: 10 mph from South

Location: Norfolk Island Airport

Current Time: Jul 25, 2014 at 6:17:57 AM

Latest Report: Jul 25, 2014 at 5:30 AM


Visibility: N/A

Pressure: 30.27 "Hg

Humidity: 59%

Dew point: 43 °F

Location of KingstonLocation

Historic Weather in Kingston — Graph

°F

Kingston temperature yesterday

Maximum temperature yesterday: 63 °F (at 1:00 PM)
Minimum temperature yesterday: 55 °F (at 12:30 AM)
Average temperature yesterday: 59 °F

Past Weeks' High & Low Weather Summary

 TemperatureHumidityPressure
High66 °F (Jul 10, 9:30 AM)94% (Jul 11, 12:30 PM)30.27 "Hg (Jul 11, 12:30 PM)
Low54 °F (Jul 14, 5:00 AM)45% (Jul 16, 10:30 AM)29.47 "Hg (Jul 19, 3:30 AM)
Average60 °F68%29.93 "Hg
* Reported Jul 10 4:30 AM — Jul 25 5:00 AM, Kingston, Weather by CustomWeather, © 2014

Note: Actual official high and low records may vary slightly from our data, if they occured in-between our weather recording intervals... More about our weather records

Advertising

Kingston weather history for previous 24 hours

 ConditionsComfort  
Time TempWeatherWind HumidityBarometerVisibility
5:00 AM
Jul 25
57 °FPassing clouds.9 mph63%30.27 "HgN/A
4:30 AM57 °FPassing clouds.8 mph63%30.24 "HgN/A
4:00 AM57 °FPartly cloudy.8 mph67%30.24 "HgN/A
3:30 AM57 °FPartly cloudy.7 mph63%30.24 "HgN/A
3:00 AM57 °FPassing clouds.6 mph63%30.24 "HgN/A
2:30 AM57 °FPassing clouds.7 mph59%30.24 "HgN/A
2:00 AM57 °FPassing clouds.6 mph63%30.24 "HgN/A
1:30 AM57 °FPassing clouds.9 mph63%30.24 "HgN/A
1:00 AM57 °FPassing clouds.8 mph63%30.24 "HgN/A
12:30 AM59 °FPassing clouds.8 mph63%30.24 "HgN/A
12:00 AM57 °FClear.8 mph63%30.27 "HgN/A
11:30 PM
Jul 24
59 °FPassing clouds.8 mph63%30.27 "HgN/A
11:00 PM57 °FPassing clouds.9 mph67%30.27 "HgN/A
10:30 PM59 °FPassing clouds.10 mph68%30.24 "HgN/A
10:00 PM59 °FPassing clouds.10 mph63%30.24 "HgN/A
9:30 PM59 °FPassing clouds.9 mph63%30.24 "HgN/A
9:00 PM59 °FPassing clouds.10 mph59%30.24 "HgN/A
8:30 PM59 °FPassing clouds.7 mph63%30.24 "HgN/A
8:00 PM59 °FPassing clouds.9 mph59%30.24 "HgN/A
7:30 PM59 °FPassing clouds.8 mph59%30.21 "HgN/A
7:00 PM57 °FPassing clouds.8 mph63%30.21 "HgN/A
6:30 PM57 °FPassing clouds.8 mph59%30.18 "HgN/A
6:00 PM57 °FPassing clouds.8 mph59%30.18 "HgN/A
5:30 PM59 °FPassing clouds.10 mph55%30.18 "HgN/A
5:00 PM59 °FPartly sunny.12 mph55%30.15 "HgN/A
4:30 PM59 °FPartly sunny.10 mph59%30.15 "HgN/A
4:00 PM61 °FPartly sunny.12 mph52%30.15 "HgN/A
3:30 PM61 °FScattered clouds.10 mph55%30.15 "HgN/A
3:00 PM61 °FScattered clouds.12 mph55%30.15 "HgN/A
2:30 PM61 °FScattered clouds.12 mph52%30.12 "HgN/A
2:00 PM61 °FScattered clouds.13 mph59%30.12 "HgN/A
1:30 PM63 °FPassing clouds.13 mph56%30.12 "HgN/A
1:00 PM63 °FPassing clouds.12 mph59%30.15 "HgN/A
12:00 PM61 °FScattered showers. Passing clouds.13 mph59%30.15 "HgN/A
11:30 AM61 °FScattered showers. Passing clouds.14 mph59%30.18 "HgN/A
11:00 AM61 °FSprinkles. Passing clouds.13 mph63%30.18 "HgN/A
10:30 AM61 °FSprinkles. Scattered clouds.10 mph59%30.18 "HgN/A
10:00 AM61 °FSprinkles. Passing clouds.12 mph55%30.18 "HgN/A
9:30 AM61 °FScattered showers. Passing clouds.13 mph59%30.15 "HgN/A
9:00 AM61 °FSprinkles. Scattered clouds.9 mph59%30.15 "HgN/A
8:30 AM57 °FScattered showers. Passing clouds.9 mph67%30.15 "HgN/A
8:00 AM57 °FScattered showers. Scattered clouds.10 mph67%30.12 "HgN/A
7:30 AM57 °FScattered showers. Passing clouds.12 mph63%30.12 "HgN/A
7:00 AM57 °FScattered clouds.10 mph59%30.12 "HgN/A
6:30 AM55 °FSprinkles. Partly cloudy.8 mph72%30.09 "HgN/A
6:00 AM57 °FOvercast.8 mph63%30.09 "HgN/A
Weather by CustomWeather, © 2014

See weather overviewHow to use our weather pages